Regional Weather Roundup
Issued by NWS

Home | Current Version | Previous Version | Text Only | Print | Product List | Glossary On
Versions: 1 2 3 4 5 6 7 8 9 10 11 12 13 14 15 16 17 18 19 20 21 22 23 24 25 26
000
ASUS46 KPQR 281510
RWROR

OREGON REGIONAL WEATHER ROUNDUP
NATIONAL WEATHER SERVICE PORTLAND OR
800 AM PDT FRI JUL 28 2017

NOTE: "FAIR" INDICATES FEW OR NO CLOUDS BELOW 12,000 FEET WITH
NO SIGNIFICANT WEATHER AND/OR OBSTRUCTIONS TO VISIBILITY.

ORZ001>013-281600-
NORTHWEST OREGON


CITY           SKY/WX    TMP DP  RH WIND       PRES   REMARKS
ASTORIA        CLOUDY    57  51  80 VRB5      30.14R
NEWPORT        SUNNY     54  52  94 NW5       30.16R
PORTLAND       MOSUNNY   59  52  77 NW7       30.12R
VANCOUVER WA   SUNNY     59  53  80 NW6       30.11S
SCAPPOOSE      MOSUNNY   57  50  77 N5        30.11S
HILLSBORO      SUNNY     57  51  80 CALM      30.11S
AURORA         MOSUNNY   60  49  66 N5        30.13R
MCMINNVILLE    SUNNY     58  52  80 CALM      30.12S
SALEM          SUNNY     60  51  72 N3        30.11R
CORVALLIS      SUNNY     59  52  77 NW3       30.12S
EUGENE         SUNNY     59  53  80 N8        30.10S
$$

ORZ021-028-281600-
SOUTHWEST OREGON


CITY           SKY/WX    TMP DP  RH WIND       PRES   REMARKS
NORTH BEND     MOSUNNY   56  52  86 N3        30.14R
BROOKINGS      FOG       53  52  96 CALM      30.05S VSB 1/2
ROSEBURG       CLOUDY    60  53  77 CALM      30.09S
SEXTON SUMMIT  SUNNY     57  52  83 N10       30.11R
GRANTS PASS    FAIR      66  54  63 N9        30.08S
MEDFORD        SUNNY     68  56  65 NW5       30.03S
$$

ORZ014>016-041-281600-
COLUMBIA GORGE


CITY           SKY/WX    TMP DP  RH WIND       PRES   REMARKS
TROUTDALE      CLOUDY    58  52  80 CALM      30.12R
HOOD RIVER     SUNNY     61  46  59 CALM      30.04S
THE DALLES     SUNNY     67  53  61 VRB5      30.01R
$$

ORZ029>031-041-044-049-050-061>064-502-503-505>511-281600-
EASTERN OREGON


CITY           SKY/WX    TMP DP  RH WIND       PRES   REMARKS
MADRAS         SUNNY     61  45  55 SE5       30.09S
REDMOND        SUNNY     63  44  50 CALM      30.09S
BEND           SUNNY     66  52  59 CALM      30.11S
PRINEVILLE     SUNNY     63  45  51 CALM      30.10F
KLAMATH FALLS  SUNNY     64  56  75 CALM      30.12R
LAKEVIEW       SUNNY     64  47  53 CALM      30.16
HERMISTON      SUNNY     71  46  40 W10       29.99R
PENDLETON      SUNNY     68  43  40 SE3       30.02S
JOHN DAY       MOSUNNY   66  43  42 CALM      30.11S
MEACHAM        SUNNY     61  39  44 CALM      30.11S
LA GRANDE      SUNNY     66  41  39 N5        30.07S
BAKER CITY     SUNNY     63  49  60 CALM      30.10S
BURNS          SUNNY     67  47  48 N5        30.12R
ROME             N/A     73  43  33 CALM      30.09S
ONTARIO        MOSUNNY   72  54  53 N5        30.04R
$$




USA.gov is the U.S. government's official web portal to all federal, state and local government web resources and services.